Location: Unspecified
(54.2679°N, 0.0000°E)
Time: 04:34:35
(UTC+00:00)

Radsat - Visible Passes

Search period start: 04 April 2026 00:00
Search period end: 14 April 2026 00:00
Orbit: 652 x 664 km, 98.6° (Epoch: 29 March)

Date Brightness Start Highest point End Pass type
(mag) Time Alt. Az. Time Alt. Az. Time Alt. Az.
4 Apr 6.4 04:10:03 10° NNE 04:14:26 43° E 04:18:46 10° S visible
5 Apr 8.1 03:04:02 10° ENE 03:05:54 12° E 03:07:45 10° ESE visible
5 Apr 5.5 04:38:55 10° NNE 04:43:30 75° ESE 04:48:03 10° SSW visible
6 Apr 7.7 03:31:47 10° NE 03:35:16 21° E 03:38:42 10° SE visible
7 Apr 6.8 04:00:17 10° NNE 04:04:30 35° E 04:08:40 10° SSE visible
8 Apr 5.8 04:29:05 10° NNE 04:33:37 61° ESE 04:38:07 10° S visible
9 Apr 7.9 03:22:14 10° NE 03:25:15 17° E 03:28:15 10° SE visible
10 Apr 7.2 03:50:33 10° NE 03:54:32 29° E 03:58:29 10° SSE visible
11 Apr 6.2 04:19:14 10° NNE 04:23:41 49° E 04:28:06 10° S visible
12 Apr 8.0 03:12:48 10° NE 03:15:13 14° E 03:17:36 10° ESE visible
13 Apr 7.5 03:40:50 10° NE 03:44:32 24° E 03:48:12 10° SSE visible
